User: anonymous   Login
Location: Foulognes
(49.1413°N, 0.8183°W)
Time: 15:27:54
(UTC+00:00)
Language:

CZ-2C R/B - Orbit

View from above orbital plane
View from above orbital plane
View from above satellite
View from above satellite

Ground track
Ground track

The orbit data is extracted from the following two-line orbital elements,

1 28480U 04046B   19339.37451623 -.00000013  00000-0  97090-5 0  9997
2 28480  98.1077  24.1528 0143153  82.6259 289.6065 14.25711916782647
Epoch (UTC): 05 December 2019 08:59:18
Eccentricity: 0.0143153
inclination: 98.1077°
perigee height: 703 km
apogee height: 909 km
right ascension of ascending node: 24.1528°
argument of perigee: 82.6259°
revolutions per day: 14.25711916
mean anomaly at epoch: 289.6065°
orbit number at epoch: 78264

The dashed part of the orbit path shows where the satellite is in the earth's shadow,  

DLR